Change the Weather History Date:

Sunday, April 21, 2013

  Actual Average Record
Temperature  
Mean Temperature 32 °F -  
Max Temperature 37 °F 55 °F 73 °F (2007)
Min Temperature 28 °F 32 °F 26 °F (2011)
Degree Days  
Heating Degree Days 32    
Moisture  
Dew Point 27 °F    
Average Humidity 80    
Maximum Humidity 100    
Minimum Humidity 55    
Precipitation  
Precipitation 0.00 in - - ()
Sea Level Pressure  
Sea Level Pressure 30.32 in    
Wind  
Wind Speed 8 mph (SE)    
Max Wind Speed 16 mph    
Max Gust Speed 23 mph    
Visibility 8 miles    
Events Rain , Snow    
Averages and records for this station are not official NWS values.
T = Trace of Precipitation, MM = Missing Value Source: NWS Daily Summary

Daily Weather History Graph

Daily Weather History Graph

Search for Another Location

Airport or City:

Trip Planner

Search our weather history database for the weather conditions in past years. The results will help you decide how hot, cold, wet, or windy it might be!

Date:

Astronomy

Apr. 21, 2013 Rise Set
Actual Time 6:03 AM CDT 7:51 PM CDT
Civil Twilight 5:32 AM CDT 8:22 PM CDT
Nautical Twilight 4:54 AM CDT 9:01 PM CDT
Astronomical Twilight 4:13 AM CDT 9:42 PM CDT
Moon 3:26 PM CDT (4/21) 3:37 AM CDT (4/21)
Length of Visible Light 14h 50m
Length of Day
13h 47m
Waxing Gibbous, 80% of the Moon is Illuminated
Apr 21
Waxing Gibbous
Apr 25
Full
May 2
Last Quarter
May 9
New
May 17
First Quarter

Hourly Weather History & Observations

Time (CDT) Temp. Windchill Dew Point Humidity Pressure Visibility Wind Dir Wind Speed Gust Speed Precip Events Conditions
12:15 AM 28.4 °F 24.6 °F 14.0 °F 55% 30.36 in 10.0 mi East 3.5 mph - N/A   Clear
12:35 AM 28.4 °F 22.2 °F 14.0 °F 55% 30.36 in 10.0 mi East 5.8 mph - N/A   Clear
12:55 AM 28.4 °F 23.3 °F 14.0 °F 55% 30.36 in 10.0 mi East 4.6 mph - N/A   Clear
1:15 AM 28.4 °F 23.3 °F 14.0 °F 55% 30.37 in 10.0 mi East 4.6 mph - N/A   Clear
1:35 AM 28.4 °F 24.6 °F 14.0 °F 55% 30.37 in 10.0 mi East 3.5 mph - N/A   Clear
4:15 AM 30.2 °F 24.3 °F 21.2 °F 69% 30.38 in 10.0 mi SE 5.8 mph - N/A   Clear
4:35 AM 30.2 °F 23.4 °F 21.2 °F 69% 30.38 in 10.0 mi SE 6.9 mph - N/A   Clear
4:55 AM 30.2 °F 24.3 °F 23.0 °F 75% 30.38 in 10.0 mi SE 5.8 mph - N/A   Clear
5:15 AM 30.2 °F 22.6 °F 23.0 °F 75% 30.38 in 10.0 mi SE 8.1 mph - N/A   Scattered Clouds
5:35 AM 30.2 °F 22.6 °F 24.8 °F 80% 30.38 in 10.0 mi SE 8.1 mph - N/A   Scattered Clouds
5:45 AM 30.2 °F 22.6 °F 24.8 °F 80% 30.39 in 10.0 mi SE 8.1 mph - N/A   Overcast
6:45 AM 30.2 °F 22.6 °F 24.8 °F 80% 30.42 in 10.0 mi SSE 8.1 mph - N/A   Overcast
7:15 AM 30.2 °F 23.4 °F 26.6 °F 86% 30.44 in 4.0 mi South 6.9 mph - N/A Snow Light Snow
7:45 AM 30.2 °F 21.9 °F 28.4 °F 93% 30.44 in 2.0 mi SSE 9.2 mph - N/A Snow Light Snow
8:45 AM 30.2 °F 21.3 °F 30.2 °F 100% 30.43 in 0.5 mi SSE 10.4 mph - N/A Snow Light Snow
9:45 AM 30.2 °F 20.8 °F 30.2 °F 100% 30.43 in 3.0 mi SSE 11.5 mph - N/A Snow Light Snow
10:50 AM 32.0 °F 22.1 °F 30.2 °F 93% 30.41 in 7.0 mi SSE 13.8 mph 20.7 mph N/A Snow Light Snow
11:45 AM 32.0 °F 21.6 °F 32.0 °F 100% 30.40 in 7.0 mi SE 15.0 mph 23.0 mph N/A Snow Light Snow
12:45 PM 32.0 °F 21.6 °F 30.2 °F 93% 30.38 in 0.5 mi SSE 15.0 mph 19.6 mph N/A Snow Light Snow
1:45 PM 32.0 °F 23.0 °F 32.0 °F 100% 30.34 in 3.0 mi SE 11.5 mph 18.4 mph N/A Snow Light Snow
2:45 PM 33.8 °F 23.9 °F 32.0 °F 93% 30.31 in 7.0 mi ESE 15.0 mph 21.9 mph N/A   Overcast
3:45 PM 35.6 °F 25.9 °F 32.0 °F 87% 30.29 in 10.0 mi SE 16.1 mph 23.0 mph N/A   Light Drizzle
4:47 PM 35.6 °F 26.6 °F 33.8 °F 93% 30.26 in 10.0 mi SE 13.8 mph 17.3 mph N/A   Mostly Cloudy
5:45 PM 37.4 °F 29.8 °F 32.0 °F 81% 30.24 in 10.0 mi SE 11.5 mph 18.4 mph N/A   Clear
6:55 PM 35.6 °F 27.5 °F 28.4 °F 75% 30.21 in 10.0 mi ESE 11.5 mph 19.6 mph N/A   Clear
7:50 PM 35.6 °F 28.0 °F 28.4 °F 75% 30.19 in 10.0 mi ESE 10.4 mph - N/A   Clear
8:50 PM 35.6 °F 28.6 °F 28.4 °F 75% 30.19 in 10.0 mi ESE 9.2 mph - N/A   Clear
9:50 PM 37.4 °F 30.3 °F 28.4 °F 70% 30.19 in 10.0 mi SE 10.4 mph - N/A   Scattered Clouds
10:15 PM 37.4 °F 29.8 °F 30.2 °F 75% 30.18 in 10.0 mi SE 11.5 mph - N/A   Scattered Clouds
10:35 PM 37.4 °F 30.3 °F 32.0 °F 81% 30.18 in 10.0 mi SE 10.4 mph - N/A   Scattered Clouds
10:55 PM 37.4 °F 30.3 °F 32.0 °F 81% 30.17 in 10.0 mi SE 10.4 mph - N/A   Drizzle
11:15 PM 37.4 °F 29.8 °F 32.0 °F 81% 30.16 in 10.0 mi SE 11.5 mph - N/A Rain Rain
11:35 PM 37.4 °F 32.1 °F 32.0 °F 81% 30.18 in 10.0 mi South 6.9 mph - N/A Rain Light Rain
11:55 PM 37.4 °F 32.1 °F 33.8 °F 87% 30.19 in 7.0 mi South 6.9 mph - N/A Rain Light Rain